Weather History for Redmond, OR

Change the Weather History Date:

Monday, March 18, 2013

  Actual Average Record
Temperature  
Mean Temperature 35 °F 40 °F  
Max Temperature 53 °F 54 °F 75 °F (1960)
Min Temperature 17 °F 26 °F 7 °F (2002)
Degree Days  
Heating Degree Days 30 25  
Month to date heating degree days 450 471  
Since 1 July heating degree days 4917 5144  
Cooling Degree Days 0 0  
Month to date cooling degree days 0 0  
Year to date cooling degree days 0 0  
Moisture  
Dew Point 16 °F    
Average Humidity 50    
Maximum Humidity 84    
Minimum Humidity 16    
Precipitation  
Precipitation 0.00 in 0.02 in 0.14 in (1995)
Month to date precipitation 0.08 0.37  
Year to date precipitation 0.50 1.99  
Sea Level Pressure  
Sea Level Pressure 30.19 in    
Wind  
Wind Speed 4 mph (SW)    
Max Wind Speed 13 mph    
Max Gust Speed 20 mph    
Visibility 10 miles    
Events      
T = Trace of Precipitation, MM = Missing Value Source: NWS Daily Summary

Daily Weather History Graph

Daily Weather History Graph

Search for Another Location

Airport:

Trip Planner

Search our weather history database for the weather conditions in past years. The results will help you decide how hot, cold, wet, or windy it might be!

Date:

Astronomy

Mar. 18, 2013 Rise Set
Actual Time 7:10 AM PDT 7:14 PM PDT
Civil Twilight 6:41 AM PDT 7:43 PM PDT
Nautical Twilight 6:08 AM PDT 8:17 PM PDT
Astronomical Twilight 5:33 AM PDT 8:52 PM PDT
Moon 11:02 AM PDT (3/18) 1:30 AM PDT (3/18)
Length of Visible Light 13h 01m
Length of Day
12h 04m
Waxing Crescent, 41% of the Moon is Illuminated
Mar 18
Waxing Crescent
Mar 19
First Quarter
Mar 27
Full
Apr 2
Last Quarter
Apr 10
New

Hourly Weather History & Observations

Time (PDT) Temp. Windchill Dew Point Humidity Pressure Visibility Wind Dir Wind Speed Gust Speed Precip Events Conditions
12:56 AM 25.0 °F 19.3 °F 18.0 °F 75% 30.19 in 10.0 mi South 4.6 mph - N/A   Clear
1:56 AM 25.0 °F 20.7 °F 18.0 °F 75% 30.19 in 10.0 mi SE 3.5 mph - N/A   Mostly Cloudy
2:56 AM 21.9 °F - 17.1 °F 82% 30.19 in 10.0 mi Calm Calm - N/A   Partly Cloudy
3:56 AM 19.9 °F - 16.0 °F 85% 30.19 in 10.0 mi Calm Calm - N/A   Clear
4:56 AM 21.0 °F - 16.0 °F 81% 30.20 in 10.0 mi Calm Calm - N/A   Clear
5:56 AM 19.0 °F 12.3 °F 15.1 °F 85% 30.22 in 10.0 mi South 4.6 mph - N/A   Clear
6:56 AM 19.0 °F 13.9 °F 15.1 °F 85% 30.24 in 10.0 mi SSE 3.5 mph - N/A   Partly Cloudy
7:56 AM 21.0 °F 16.2 °F 17.1 °F 85% 30.25 in 10.0 mi SSE 3.5 mph - N/A   Clear
8:56 AM 30.0 °F 25.2 °F 21.0 °F 69% 30.24 in 10.0 mi South 4.6 mph - N/A   Clear
9:56 AM 36.0 °F 30.3 °F 21.9 °F 57% 30.23 in 10.0 mi South 6.9 mph - N/A   Clear
10:56 AM 39.9 °F 36.7 °F 21.9 °F 49% 30.22 in 10.0 mi WSW 4.6 mph - N/A   Clear
11:56 AM 44.1 °F 40.8 °F 21.0 °F 40% 30.22 in 10.0 mi Variable 5.8 mph - N/A   Clear
12:56 PM 46.9 °F - 19.0 °F 33% 30.19 in 10.0 mi WNW 6.9 mph - N/A   Clear
1:56 PM 48.9 °F - 17.1 °F 28% 30.17 in 10.0 mi SSE 5.8 mph - N/A   Clear
2:56 PM 51.1 °F - 9.0 °F 18% 30.15 in 10.0 mi West 5.8 mph - N/A   Clear
3:56 PM 51.1 °F - 7.0 °F 17% 30.14 in 10.0 mi WNW 4.6 mph - N/A   Clear
4:56 PM 51.1 °F - 6.1 °F 16% 30.14 in 10.0 mi West 4.6 mph - N/A   Clear
5:56 PM 52.0 °F - 6.1 °F 16% 30.14 in 10.0 mi NNE 3.5 mph - N/A   Clear
6:56 PM 48.0 °F - 8.1 °F 20% 30.14 in 10.0 mi NNW 5.8 mph - N/A   Clear
7:56 PM 39.9 °F 35.8 °F 18.0 °F 41% 30.16 in 10.0 mi North 5.8 mph - N/A   Clear
8:56 PM 36.0 °F 31.1 °F 19.9 °F 52% 30.18 in 10.0 mi West 5.8 mph - N/A   Clear
9:56 PM 28.0 °F - 18.0 °F 66% 30.19 in 10.0 mi Calm Calm - N/A   Clear
10:56 PM 27.0 °F 23.0 °F 17.1 °F 66% 30.19 in 10.0 mi SW 3.5 mph - N/A   Clear
11:56 PM 27.0 °F - 19.0 °F 72% 30.18 in 10.0 mi Calm Calm - N/A   Clear